This is the latest recevied weather packets stored in our database for station/object KD7DVD-1. If no packets are shown the sender has not sent any weather packets the latest 10 day(s).
| Time | Temp. | Humidity | Pressure | Rain* | Wind** | Luminosity | Snow |
|---|---|---|---|---|---|---|---|
| 1788665421 | 17.22° C | 65% | 1016.4 hPa | 0 mm | - | - | - |
| 1788663616 | 17.78° C | 60% | 1016.2 hPa | 0 mm | - | - | - |
| 1788661817 | 18.89° C | 57% | 1016.1 hPa | 0 mm | - | - | - |
| 1788660021 | 21.67° C | 55% | 1016.1 hPa | 0 mm | - | - | - |
| 1788658221 | 21.67° C | 56% | 1016.1 hPa | 0 mm | - | - | - |
| 1788656420 | 21.11° C | 59% | 1016 hPa | 0 mm | - | - | - |
| 1788654618 | 20.56° C | 59% | 1015.8 hPa | 0 mm | - | - | - |
| 1788652818 | 19.44° C | 65% | 1015.7 hPa | 0 mm | - | - | - |
| 1788651041 | 19.44° C | 64% | 1016.1 hPa | 0 mm | - | - | - |
| 1788649218 | 18.89° C | 67% | 1016.2 hPa | 0 mm | - | - | - |
| 1788647422 | 18.89° C | 69% | 1016.5 hPa | 0 mm | - | - | - |
| 1788645622 | 19.44° C | 65% | 1016.7 hPa | 0 mm | - | - | - |
| 1788643817 | 18.89° C | 68% | 1016.9 hPa | 0 mm | - | - | - |
| 1788642017 | 18.33° C | 71% | 1017.1 hPa | 0 mm | - | - | - |
| 1788640222 | 18.33° C | 71% | 1017.1 hPa | 0 mm | - | - | - |
| 1788638422 | 18.33° C | 69% | 1017.2 hPa | 0 mm | - | - | - |
| 1788636617 | 17.78° C | 68% | 1017.5 hPa | 0 mm | - | - | - |
| 1788634822 | 17.22° C | 71% | 1017.4 hPa | 0 mm | - | - | - |
| 1788633017 | 16.67° C | 77% | 1017.6 hPa | 0 mm | - | - | - |
| 1788631217 | 15.56° C | 75% | 1017.9 hPa | 0 mm | - | - | - |
| 1788629422 | 15.56° C | 76% | 1017.8 hPa | 0 mm | - | - | - |
| 1788627621 | 14.44° C | 80% | 1017.6 hPa | 0 mm | - | - | - |
| 1788625824 | 14.44° C | 81% | 1017.6 hPa | 0 mm | - | - | - |
| 1788624016 | 13.89° C | 84% | 1017.6 hPa | 0 mm | - | - | - |
| 1788622221 | 12.78° C | 89% | 1017.7 hPa | 0 mm | - | - | - |
* Rain latest hour (hover to see other rain measurements)
** Current wind speed in m/s (hover to see current wind gust speed)